GW6797 Weather Reports


Display with metric or nautical units.
time (UTC)temp
F
wind
direction
speed
MPH
gust
MPH
rain 1hr
in
rain 24hr
in
rain mn
in
humidity
%
barometer
mb
20260507042447 55 84 5.0 10.0 0.00 0.06 0.04 89 1014.0
20260507041946 55 69 2.0 11.0 0.00 0.06 0.04 89 1013.7
20260507041446 55 357 3.0 11.0 0.00 0.06 0.04 89 1013.5
20260507040945 55 170 2.0 13.0 0.00 0.06 0.04 89 1013.5
20260507040446 55 349 3.0 13.0 0.00 0.06 0.04 89 1013.4
20260507035945 55 330 1.0 12.0 0.00 0.06 0.04 89 1013.4
20260507035444 55 81 4.0 14.0 0.01 0.06 0.04 89 1013.5
20260507034944 55 151 2.0 14.0 0.01 0.06 0.04 89 1013.5
20260507034443 55 66 4.0 10.0 0.01 0.06 0.04 90 1013.6
20260507033942 55 47 4.0 13.0 0.02 0.06 0.04 90 1013.6
20260507033442 55 83 4.0 13.0 0.02 0.06 0.04 90 1013.6
20260507032942 55 78 6.0 10.0 0.02 0.06 0.04 90 1013.6
20260507032440 55 73 8.0 8.0 0.03 0.06 0.04 90 1013.7
20260507031941 55 259 2.0 7.0 0.03 0.06 0.04 89 1013.7
20260507031440 55 235 2.0 15.0 0.03 0.06 0.04 88 1014.0
20260507030939 55 169 4.0 15.0 0.02 0.06 0.04 89 1013.8
20260507030439 55 48 3.0 13.0 0.03 0.06 0.04 89 1013.9
20260507025437 55 109 5.0 12.0 0.03 0.05 0.03 90 1014.0
20260507024937 55 70 4.0 12.0 0.02 0.05 0.03 89 1014.0
20260507024437 55 72 7.0 11.0 0.03 0.05 0.03 89 1014.0
20260507023936 56 91 5.0 8.0 0.02 0.04 0.02 88 1013.9
20260507022936 56 155 2.0 9.0 0.02 0.04 0.02 88 1014.0
20260507022436 56 10 4.0 9.0 0.01 0.03 0.01 88 1013.7
20260507021434 56 186 2.0 9.0 0.01 0.03 0.01 85 1013.6
20260507020934 56 87 2.0 8.0 0.01 0.03 0.01 86 1013.6
20260507020433 56 165 3.0 6.0 0.01 0.03 0.01 86 1013.6
20260507015932 56 33 2.0 6.0 0.01 0.03 0.01 86 1013.7
20260507015432 56 111 5.0 5.0 0.00 0.02 0.00 86 1013.6
20260507014431 57 242 2.0 10.0 0.00 0.02 0.00 85 1013.8
20260507013931 57 210 2.0 8.0 0.00 0.02 0.00 85 1013.8
20260507013430 57 267 3.0 7.0 0.00 0.02 0.00 84 1013.8
20260507012929 57 224 3.0 9.0 0.00 0.02 0.00 84 1013.9
20260507012429 57 69 3.0 9.0 0.00 0.02 0.00 84 1013.8
20260507011928 57 187 4.0 6.0 0.00 0.02 0.00 83 1013.8
20260507011428 57 128 1.0 7.0 0.00 0.02 0.00 83 1013.7
20260507010426 57 235 4.0 12.0 0.00 0.02 0.00 82 1013.5
20260507005927 57 284 4.0 12.0 0.00 0.02 0.00 82 1013.7
20260507005425 57 143 3.0 8.0 0.00 0.02 0.00 82 1013.6
20260507004926 57 276 4.0 8.0 0.00 0.02 0.00 82 1013.6
20260507003924 57 218 2.0 8.0 0.00 0.02 0.00 82 1013.6
20260507003424 57 214 3.0 11.0 0.00 0.02 0.00 83 1013.9
20260507002923 57 268 3.0 11.0 0.00 0.02 0.00 83 1013.8
20260507001922 57 86 2.0 16.0 0.00 0.02 0.00 83 1013.4
20260507001421 57 84 8.0 18.0 0.00 0.02 0.00 83 1013.6
20260507000420 57 86 9.0 22.0 0.00 0.02 0.00 82 1013.3
20260506235921 57 68 2.0 22.0 0.00 0.02 0.00 82 1013.5
20260506235419 58 67 5.0 17.0 0.00 0.02 0.00 82 1013.4
20260506234919 58 93 9.0 17.0 0.00 0.02 0.00 81 1013.3
20260506234418 58 80 7.0 15.0 0.00 0.02 0.00 81 1013.3
20260506233919 58 83 8.0 12.0 0.00 0.02 0.00 81 1013.1
20260506233417 58 79 5.0 11.0 0.00 0.02 0.00 81 1013.4
20260506232916 58 57 4.0 13.0 0.00 0.02 0.00 81 1013.7
20260506232416 58 105 3.0 13.0 0.00 0.02 0.00 81 1013.5
20260506231916 58 28 5.0 20.0 0.00 0.02 0.00 80 1013.6
20260506231415 58 182 5.0 20.0 0.00 0.02 0.00 80 1013.8
20260506230915 58 89 5.0 15.0 0.00 0.02 0.00 80 1013.6
20260506230414 58 94 6.0 14.0 0.00 0.02 0.00 80 1014.0
20260506225914 58 167 3.0 13.0 0.00 0.02 0.00 79 1013.6
20260506225413 58 84 5.0 11.0 0.00 0.02 0.00 79 1013.8
20260506224913 58 78 2.0 14.0 0.00 0.02 0.00 79 1014.0
20260506224412 58 8 3.0 16.0 0.00 0.02 0.00 79 1013.8
20260506223913 58 95 5.0 16.0 0.00 0.02 0.00 79 1013.8
20260506223411 58 101 6.0 21.0 0.00 0.02 0.00 80 1013.5
20260506222911 58 37 5.0 21.0 0.00 0.02 0.00 79 1013.6
20260506222410 58 97 9.0 14.0 0.00 0.02 0.00 79 1013.7
20260506221910 58 265 4.0 15.0 0.00 0.02 0.00 79 1013.8
20260506221409 58 79 5.0 15.0 0.00 0.02 0.00 79 1013.8
20260506220408 58 85 8.0 15.0 0.00 0.02 0.00 78 1014.1
20260506215908 58 107 11.0 15.0 0.00 0.02 0.02 78 1014.0
20260506215407 58 104 6.0 13.0 0.00 0.02 0.02 78 1013.9
20260506214907 58 359 5.0 13.0 0.00 0.02 0.02 78 1013.8
20260506213906 58 71 6.0 18.0 0.00 0.02 0.02 78 1014.0
20260506213405 58 95 10.0 18.0 0.00 0.02 0.02 78 1013.8
20260506212905 58 76 7.0 13.0 0.00 0.02 0.02 78 1013.7
20260506212404 58 58 5.0 12.0 0.00 0.02 0.02 78 1013.8
20260506211903 58 68 4.0 12.0 0.00 0.02 0.02 78 1013.9
20260506211403 58 108 5.0 11.0 0.00 0.02 0.02 78 1013.8
20260506210903 58 117 3.0 11.0 0.00 0.02 0.02 79 1013.8
20260506210402 58 46 6.0 13.0 0.00 0.02 0.02 79 1013.9
20260506205902 58 82 4.0 13.0 0.00 0.02 0.02 78 1014.1
20260506205401 58 72 3.0 13.0 0.00 0.02 0.02 79 1014.0
20260506204400 58 164 2.0 9.0 0.00 0.02 0.02 79 1014.4
20260506203900 58 62 2.0 11.0 0.00 0.02 0.02 79 1014.4
20260506203359 58 50 4.0 11.0 0.00 0.02 0.02 79 1014.4
20260506202858 58 77 6.0 16.0 0.00 0.02 0.02 79 1014.2
20260506202358 58 93 6.0 16.0 0.00 0.02 0.02 79 1014.3
20260506200856 58 76 10.0 14.0 0.00 0.02 0.02 78 1014.3
20260506200356 58 292 2.0 14.0 0.00 0.02 0.02 78 1014.5
20260506195856 59 2 2.0 11.0 0.00 0.02 0.02 78 1014.4
20260506195355 59 97 3.0 13.0 0.00 0.02 0.02 77 1014.4
20260506193854 59 28 6.0 13.0 0.00 0.02 0.02 75 1014.0
20260506193353 59 343 3.0 12.0 0.00 0.02 0.02 75 1014.0
20260506192852 59 84 4.0 9.0 0.00 0.02 0.02 74 1014.1
20260506192352 59 81 3.0 11.0 0.00 0.02 0.02 74 1014.0
20260506191852 59 126 2.0 12.0 0.00 0.02 0.02 74 1013.9
20260506190850 59 137 7.0 11.0 0.00 0.02 0.02 73 1013.5
20260506190350 59 52 2.0 7.0 0.00 0.02 0.02 74 1013.7
20260506185849 59 84 2.0 7.0 0.00 0.02 0.02 74 1013.5
20260506185349 59 94 6.0 10.0 0.00 0.02 0.02 74 1013.6
20260506184849 59 279 3.0 10.0 0.00 0.02 0.02 74 1013.3
20260506184348 59 253 3.0 8.0 0.00 0.02 0.02 76 1013.3
20260506183848 59 267 2.0 13.0 0.00 0.02 0.02 76 1013.4
20260506183347 59 341 2.0 14.0 0.00 0.02 0.02 76 1013.1
20260506182846 59 215 2.0 14.0 0.00 0.02 0.02 76 1013.4
20260506182346 59 299 1.0 14.0 0.00 0.02 0.02 76 1013.4
20260506181846 60 52 6.0 12.0 0.00 0.02 0.02 76 1013.2
20260506181345 60 94 5.0 11.0 0.00 0.02 0.02 75 1013.4
20260506180844 60 110 4.0 13.0 0.00 0.02 0.02 75 1013.5
20260506180344 60 110 4.0 15.0 0.00 0.02 0.02 75 1013.2
20260506175845 60 55 12.0 15.0 0.00 0.02 0.02 74 1013.2
20260506174341 61 70 1.0 13.0 0.00 0.02 0.02 73 1013.2
20260506173842 61 116 3.0 13.0 0.00 0.02 0.02 74 1013.1
20260506173342 60 77 3.0 11.0 0.00 0.02 0.02 76 1013.3
20260506172841 61 20 3.0 11.0 0.00 0.02 0.02 76 1013.0
20260506172340 61 300 4.0 7.0 0.00 0.02 0.02 76 1013.1
20260506171839 61 211 3.0 9.0 0.00 0.02 0.02 76 1013.2
20260506171339 61 271 1.0 9.0 0.00 0.02 0.02 78 1013.1
20260506170838 61 146 0.0 6.0 0.00 0.02 0.02 78 1013.2
20260506165337 61 163 0.0 4.0 0.02 0.02 0.02 78 1013.3
20260506164837 61 298 0.0 4.0 0.02 0.02 0.02 78 1013.2
20260506164335 61 62 2.0 6.0 0.02 0.02 0.02 78 1013.3
20260506163835 61 116 2.0 6.0 0.02 0.02 0.02 79 1013.4
20260506162834 61 219 1.0 5.0 0.02 0.02 0.02 79 1013.2
20260506162333 60 150 2.0 4.0 0.02 0.02 0.02 80 1013.2
20260506161832 60 247 2.0 4.0 0.02 0.02 0.02 81 1013.2
20260506161332 60 273 1.0 4.0 0.02 0.02 0.02 82 1013.4
20260506160832 60 176 3.0 6.0 0.02 0.02 0.02 82 1013.4
20260506155832 61 111 2.0 19.0 0.02 0.02 0.02 80 1013.3
20260506155330 63 99 5.0 11.0 0.00 0.00 0.00 68 1013.5
20260506154329 64 348 2.0 7.0 0.00 0.00 0.00 64 1013.4
20260506153829 64 84 2.0 7.0 0.00 0.00 0.00 63 1013.4
20260506153328 65 14 5.0 7.0 0.00 0.00 0.00 61 1013.2
20260506152828 65 18 4.0 6.0 0.00 0.00 0.00 62 1013.3
20260506152327 65 189 0.0 7.0 0.00 0.00 0.00 61 1012.8
20260506151827 65 62 3.0 8.0 0.00 0.00 0.00 62 1013.0
20260506151327 64 95 3.0 8.0 0.00 0.00 0.00 64 1013.1
20260506150326 65 333 0.0 7.0 0.00 0.00 0.00 63 1013.3
20260506145824 65 99 5.0 6.0 0.00 0.00 0.00 63 1013.1
20260506144824 65 104 4.0 9.0 0.00 0.00 0.00 62 1013.0
20260506144323 65 61 3.0 8.0 0.00 0.00 0.00 61 1013.1
20260506143823 66 277 3.0 6.0 0.00 0.00 0.00 62 1013.1
20260506142321 66 111 5.0 9.0 0.00 0.00 0.00 61 1013.1
20260506141320 66 96 3.0 9.0 0.00 0.00 0.00 60 1013.1
20260506140820 66 67 3.0 9.0 0.00 0.00 0.00 60 1013.1
20260506140319 66 50 4.0 9.0 0.00 0.00 0.00 61 1013.1
20260506135318 66 27 4.0 10.0 0.00 0.00 0.00 61 1013.3
20260506134317 66 109 5.0 11.0 0.00 0.00 0.00 62 1013.3
20260506133316 65 54 6.0 12.0 0.00 0.00 0.00 62 1013.6
20260506132815 65 198 4.0 12.0 0.00 0.00 0.00 62 1013.7
20260506132315 66 124 1.0 12.0 0.00 0.00 0.00 61 1013.6
20260506131815 66 88 4.0 13.0 0.00 0.00 0.00 61 1013.6
20260506131314 65 37 2.0 13.0 0.00 0.00 0.00 61 1013.4
20260506130814 66 48 7.0 16.0 0.00 0.00 0.00 59 1013.3
20260506130314 66 107 7.0 21.0 0.00 0.00 0.00 59 1013.4
20260506125812 67 140 2.0 21.0 0.00 0.00 0.00 58 1013.6
20260506125312 66 95 8.0 15.0 0.00 0.00 0.00 59 1013.6
20260506124311 66 101 4.0 16.0 0.00 0.00 0.00 58 1013.5
20260506123811 66 98 5.0 16.0 0.00 0.00 0.00 59 1013.7
20260506123309 66 98 7.0 16.0 0.00 0.00 0.00 59 1013.7
20260506122810 66 75 6.0 11.0 0.00 0.00 0.00 59 1013.5
20260506122309 66 112 6.0 10.0 0.00 0.00 0.00 58 1013.7
20260506121809 66 82 2.0 15.0 0.00 0.00 0.00 58 1013.7
20260506121308 67 158 3.0 15.0 0.00 0.00 0.00 57 1013.7
20260506120808 67 89 12.0 18.0 0.00 0.00 0.00 56 1013.3
20260506120307 67 17 2.0 18.0 0.00 0.00 0.00 56 1013.5
20260506115806 66 105 9.0 13.0 0.00 0.00 0.00 57 1013.5
20260506115307 67 74 3.0 13.0 0.00 0.00 0.00 57 1013.6
20260506113804 68 19 2.0 12.0 0.00 0.00 0.00 57 1013.5
20260506113303 67 103 3.0 12.0 0.00 0.00 0.00 59 1013.4
20260506112803 68 64 6.0 17.0 0.00 0.00 0.00 59 1013.5
20260506112305 67 84 9.0 17.0 0.00 0.00 0.00 61 1013.5
20260506111802 69 103 4.0 12.0 0.00 0.00 0.00 58 1013.5
20260506111301 69 52 1.0 13.0 0.00 0.00 0.00 58 1013.4
20260506110802 68 78 5.0 13.0 0.00 0.00 0.00 60 1013.5
20260506105801 67 142 4.0 10.0 0.00 0.00 0.00 60 1013.8
20260506105259 68 147 2.0 10.0 0.00 0.00 0.00 60 1013.6
20260506104800 69 281 2.0 9.0 0.00 0.00 0.00 59 1013.7
20260506104258 69 65 3.0 8.0 0.00 0.00 0.00 59 1013.8
20260506103758 67 99 6.0 8.0 0.00 0.00 0.00 62 1013.7
20260506103257 66 122 4.0 7.0 0.00 0.00 0.00 63 1013.6
20260506102257 65 234 2.0 8.0 0.00 0.00 0.00 64 1013.9
20260506101255 65 211 0.0 10.0 0.00 0.00 0.00 64 1013.8
20260506100254 65 73 7.0 14.0 0.00 0.00 0.00 64 1013.9
20260506095755 65 264 6.0 14.0 0.00 0.00 0.00 63 1014.0
20260506095253 65 104 5.0 7.0 0.00 0.00 0.00 64 1013.9
20260506094754 65 261 4.0 7.0 0.00 0.00 0.00 63 1013.9
20260506094252 65 196 3.0 7.0 0.00 0.00 0.00 63 1013.9
20260506093753 64 178 5.0 10.0 0.00 0.00 0.00 64 1013.8
20260506093252 64 195 2.0 10.0 0.00 0.00 0.00 64 1013.7
20260506092752 63 213 2.0 12.0 0.00 0.00 0.00 64 1013.9
20260506092250 63 260 12.0 12.0 0.00 0.00 0.00 65 1013.8
20260506091750 63 266 0.0 6.0 0.00 0.00 0.00 65 1013.8
20260506091250 63 202 1.0 5.0 0.00 0.00 0.00 64 1013.9
20260506090750 63 33 2.0 8.0 0.00 0.00 0.00 64 1013.8
20260506090248 62 125 2.0 11.0 0.00 0.00 0.00 64 1014.1
20260506085748 62 258 6.0 11.0 0.00 0.00 0.00 64 1013.7
20260506085247 62 92 5.0 9.0 0.00 0.00 0.00 63 1014.0
20260506084748 62 334 2.0 8.0 0.00 0.00 0.00 62 1013.7
20260506084246 62 103 3.0 5.0 0.00 0.00 0.00 62 1013.8
20260506083723 62 321 4.0 7.0 0.00 0.00 0.00 62 1013.8
20260506082722 62 234 3.0 4.0 0.00 0.00 0.00 62 1013.6
20260506081720 61 242 3.0 5.0 0.00 0.00 0.00 62 1013.5
20260506081221 61 271 1.0 6.0 0.00 0.00 0.00 62 1013.8
20260506080719 61 92 2.0 9.0 0.00 0.00 0.00 63 1013.8
20260506080220 61 108 4.0 9.0 0.00 0.00 0.00 63 1013.8
20260506073217 60 97 3.0 9.0 0.00 0.00 0.00 63 1013.4
20260506072716 60 156 2.0 4.0 0.00 0.00 0.00 62 1013.3
20260506072216 59 284 1.0 7.0 0.00 0.00 0.00 63 1013.7
20260506071714 59 334 0.0 7.0 0.00 0.00 0.00 64 1013.5
20260506071214 58 266 1.0 9.0 0.00 0.00 0.00 65 1013.7
20260506070714 58 75 2.0 9.0 0.00 0.00 0.00 66 1013.6
20260506070214 57 35 2.0 9.0 0.00 0.00 0.00 66 1013.8
20260506062210 57 97 5.0 11.0 0.00 0.00 0.00 70 1013.8
20260506061208 57 78 4.0 8.0 0.00 0.01 0.00 70 1013.7
20260506060708 57 310 0.0 8.0 0.00 0.01 0.00 68 1013.6
20260506060208 57 255 3.0 10.0 0.00 0.01 0.00 70 1013.4
20260506051202 57 212 0.0 8.0 0.00 0.01 0.00 69 1013.6
20260506050701 57 299 3.0 6.0 0.00 0.01 0.00 70 1013.6
20260506050201 57 178 2.0 8.0 0.00 0.01 0.00 72 1013.6
20260506044700 57 260 0.0 9.0 0.00 0.01 0.00 72 1013.4
20260506043658 57 272 5.0 22.0 0.00 0.01 0.00 72 1013.3
20260506043159 57 191 1.0 22.0 0.00 0.01 0.00 72 1013.2